APSTAR 9

Last updated on Thu Mar 14 2024 00:02:39 GMT+0000 (Coordinated Universal Time)

1 40982U 15059A 24073.64198208 -.00000276 00000+0 00000+0 0 9991 2 40982 0.0251 249.2691 0001267 22.0121 273.5620 1.00272112 30846
UTC large
Height (km)
Speed (km/s)
/
Latitude / Longitude
Inclination (degrees)
Orbital Period (minutes)
Azimuth
Elevation
Range (km)
Doppler Factor

Next 0 passes for location: London (51.5072 / 0.1276)

Sorry there are no passes over London.